GLO1022 SBSP-SBRJ

Flight info

Callsign GLO1022
Flight time 0h 38m
Altitude 25000
Route NIBRU UZ171 KEVUN
Aircraft B738/M-SDE2E3FGHIRWXY/LB1

Departure

Time 2026-05-06 18:13
Airport Congonhas–Deputado Freitas Nobre Airport (SBSP)

Arrival

Time 2026-05-06 18:51
Airport Santos Dumont Airport (SBRJ)
Time Latitude Longitude Altitude Speed Heading
2026-05-06 17:24 -23.62543 -46.65940 2612 ft 0 kts 237°
2026-05-06 18:06 -23.62540 -46.65936 2612 ft 3 kts 239°
2026-05-06 18:06 -23.62532 -46.65917 2612 ft 3 kts 268°
2026-05-06 18:07 -23.62536 -46.65897 2612 ft 3 kts 310°
2026-05-06 18:07 -23.62547 -46.65886 2613 ft 1 kts 327°
2026-05-06 18:10 -23.62543 -46.65888 2613 ft 3 kts 328°
2026-05-06 18:10 -23.62496 -46.65920 2611 ft 13 kts 328°
2026-05-06 18:10 -23.62408 -46.65980 2607 ft 16 kts 328°
2026-05-06 18:10 -23.62310 -46.66035 2605 ft 16 kts 351°
2026-05-06 18:11 -23.62205 -46.66065 2600 ft 16 kts 327°
2026-05-06 18:11 -23.62102 -46.66133 2587 ft 18 kts 339°
2026-05-06 18:11 -23.62027 -46.66104 2595 ft 5 kts 58°
2026-05-06 18:11 -23.62024 -46.66092 2595 ft 0 kts 93°
2026-05-06 18:12 -23.62029 -46.66089 2590 ft 0 kts 147°
2026-05-06 18:12 -23.62094 -46.66042 2595 ft 43 kts 147°
2026-05-06 18:12 -23.62572 -46.65709 2614 ft 118 kts 147°
2026-05-06 18:13 -23.63446 -46.65104 2785 ft 164 kts 147°
2026-05-06 18:13 -23.64377 -46.64407 3571 ft 166 kts 140°
2026-05-06 18:13 -23.65176 -46.63433 4258 ft 181 kts 121°
2026-05-06 18:13 -23.65812 -46.62147 4737 ft 206 kts 116°
2026-05-06 18:14 -23.66515 -46.60695 5024 ft 226 kts 116°
2026-05-06 18:14 -23.67271 -46.59075 5206 ft 252 kts 116°
2026-05-06 18:14 -23.68103 -46.57321 5563 ft 270 kts 117°
2026-05-06 18:14 -23.68995 -46.55491 6297 ft 276 kts 117°
2026-05-06 18:15 -23.69912 -46.53636 7113 ft 279 kts 117°
2026-05-06 18:15 -23.70844 -46.51763 7900 ft 282 kts 117°
2026-05-06 18:15 -23.71734 -46.49842 8597 ft 287 kts 107°
2026-05-06 18:15 -23.71907 -46.47684 9314 ft 288 kts 83°
2026-05-06 18:16 -23.71639 -46.45505 10066 ft 291 kts 80°
2026-05-06 18:16 -23.71310 -46.43299 10640 ft 302 kts 80°
2026-05-06 18:16 -23.70951 -46.40949 10816 ft 326 kts 80°
2026-05-06 18:16 -23.70570 -46.38421 10976 ft 347 kts 80°
2026-05-06 18:17 -23.70175 -46.35749 11196 ft 364 kts 81°
2026-05-06 18:17 -23.69773 -46.32980 11685 ft 372 kts 81°
2026-05-06 18:17 -23.69371 -46.30186 12360 ft 373 kts 81°
2026-05-06 18:17 -23.68970 -46.27381 12970 ft 377 kts 81°
2026-05-06 18:18 -23.68563 -46.24539 13544 ft 381 kts 81°
2026-05-06 18:18 -23.68152 -46.21673 14129 ft 384 kts 81°
2026-05-06 18:18 -23.67740 -46.18785 14699 ft 387 kts 82°
2026-05-06 18:18 -23.67326 -46.15894 15182 ft 392 kts 82°
2026-05-06 18:19 -23.66901 -46.12937 15687 ft 397 kts 82°
2026-05-06 18:19 -23.66471 -46.09947 16236 ft 400 kts 82°
2026-05-06 18:19 -23.66040 -46.06944 16762 ft 403 kts 83°
2026-05-06 18:19 -23.65603 -46.03905 17247 ft 407 kts 83°
2026-05-06 18:20 -23.65163 -46.00844 17727 ft 410 kts 83°
2026-05-06 18:20 -23.64721 -45.97763 18177 ft 413 kts 83°
2026-05-06 18:20 -23.64274 -45.94653 18641 ft 417 kts 83°
2026-05-06 18:20 -23.63821 -45.91519 19083 ft 420 kts 83°
2026-05-06 18:21 -23.63362 -45.88359 19514 ft 424 kts 83°
2026-05-06 18:21 -23.62900 -45.85173 19934 ft 427 kts 83°
2026-05-06 18:21 -23.62433 -45.81958 20358 ft 430 kts 83°
2026-05-06 18:21 -23.61963 -45.78728 20761 ft 433 kts 83°
2026-05-06 18:22 -23.61489 -45.75467 21149 ft 436 kts 83°
2026-05-06 18:22 -23.61010 -45.72182 21555 ft 439 kts 83°
2026-05-06 18:22 -23.60528 -45.68886 21916 ft 442 kts 83°
2026-05-06 18:22 -23.60046 -45.65594 22263 ft 446 kts 82°
2026-05-06 18:23 -23.59555 -45.62245 22628 ft 448 kts 82°
2026-05-06 18:23 -23.59064 -45.58884 22972 ft 451 kts 82°
2026-05-06 18:23 -23.58566 -45.55494 23300 ft 454 kts 82°
2026-05-06 18:23 -23.58065 -45.52088 23630 ft 456 kts 82°
2026-05-06 18:24 -23.57560 -45.48662 23936 ft 459 kts 82°
2026-05-06 18:24 -23.57020 -45.45208 24265 ft 462 kts 80°
2026-05-06 18:24 -23.56347 -45.41783 24695 ft 462 kts 78°
2026-05-06 18:24 -23.55613 -45.38417 25026 ft 464 kts 78°
2026-05-06 18:25 -23.54844 -45.34980 25145 ft 469 kts 78°
2026-05-06 18:25 -23.54073 -45.31506 25145 ft 474 kts 78°
2026-05-06 18:25 -23.53307 -45.28001 25166 ft 476 kts 78°
2026-05-06 18:25 -23.52549 -45.24480 25145 ft 477 kts 79°
2026-05-06 18:26 -23.51799 -45.20964 25155 ft 477 kts 79°
2026-05-06 18:26 -23.51050 -45.17443 25147 ft 478 kts 79°
2026-05-06 18:26 -23.50300 -45.13918 25139 ft 478 kts 79°
2026-05-06 18:26 -23.49549 -45.10391 25147 ft 477 kts 79°
2026-05-06 18:27 -23.48797 -45.06865 25136 ft 477 kts 78°
2026-05-06 18:27 -23.48298 -45.04532 25136 ft 477 kts 78°
2026-05-06 18:27 -23.47546 -45.01019 25133 ft 476 kts 78°
2026-05-06 18:27 -23.46796 -44.97516 25126 ft 469 kts 78°
2026-05-06 18:28 -23.46062 -44.94105 25039 ft 456 kts 78°
2026-05-06 18:28 -23.45328 -44.90764 24569 ft 449 kts 78°
2026-05-06 18:28 -23.44597 -44.87480 24092 ft 444 kts 78°
2026-05-06 18:28 -23.43870 -44.84225 23585 ft 440 kts 77°
2026-05-06 18:29 -23.43151 -44.81006 23084 ft 436 kts 77°
2026-05-06 18:29 -23.42439 -44.77811 22579 ft 431 kts 77°
2026-05-06 18:29 -23.41735 -44.74657 22078 ft 427 kts 78°
2026-05-06 18:29 -23.41044 -44.71560 21579 ft 424 kts 78°
2026-05-06 18:30 -23.40351 -44.68450 21069 ft 420 kts 78°
2026-05-06 18:30 -23.39666 -44.65381 20707 ft 413 kts 78°
2026-05-06 18:30 -23.38993 -44.62370 20333 ft 407 kts 78°
2026-05-06 18:30 -23.38330 -44.59401 19897 ft 402 kts 78°
2026-05-06 18:31 -23.37669 -44.56450 19411 ft 400 kts 78°
2026-05-06 18:31 -23.37014 -44.53522 18925 ft 397 kts 78°
2026-05-06 18:31 -23.36363 -44.50616 18438 ft 394 kts 78°
2026-05-06 18:31 -23.35714 -44.47727 17952 ft 391 kts 78°
2026-05-06 18:32 -23.35071 -44.44864 17467 ft 388 kts 78°
2026-05-06 18:32 -23.34413 -44.42024 16975 ft 386 kts 75°
2026-05-06 18:32 -23.33460 -44.39300 16500 ft 385 kts 67°
2026-05-06 18:32 -23.32316 -44.36677 16027 ft 383 kts 65°
2026-05-06 18:33 -23.31131 -44.34095 15545 ft 380 kts 65°
2026-05-06 18:33 -23.29959 -44.31527 15069 ft 377 kts 65°
2026-05-06 18:33 -23.28812 -44.28961 14595 ft 375 kts 65°
2026-05-06 18:33 -23.27693 -44.26414 14126 ft 372 kts 65°
2026-05-06 18:34 -23.26610 -44.23917 13664 ft 369 kts 65°
2026-05-06 18:34 -23.25520 -44.21392 13197 ft 366 kts 65°
2026-05-06 18:34 -23.24442 -44.18888 12734 ft 363 kts 65°
2026-05-06 18:34 -23.23375 -44.16411 12278 ft 361 kts 65°
2026-05-06 18:35 -23.22313 -44.13945 11803 ft 358 kts 65°
2026-05-06 18:35 -23.21261 -44.11506 11353 ft 355 kts 65°
2026-05-06 18:35 -23.20226 -44.09106 11181 ft 344 kts 65°
2026-05-06 18:35 -23.19207 -44.06793 10984 ft 334 kts 63°
2026-05-06 18:36 -23.18176 -44.04554 10801 ft 326 kts 63°
2026-05-06 18:36 -23.17179 -44.02405 10622 ft 318 kts 63°
2026-05-06 18:36 -23.16198 -44.00284 10459 ft 310 kts 63°
2026-05-06 18:36 -23.15261 -43.98208 10294 ft 302 kts 64°
2026-05-06 18:37 -23.14384 -43.96167 10125 ft 295 kts 65°
2026-05-06 18:37 -23.13541 -43.94177 10080 ft 284 kts 65°
2026-05-06 18:37 -23.12720 -43.92244 9846 ft 280 kts 65°
2026-05-06 18:37 -23.11911 -43.90340 9700 ft 275 kts 65°
2026-05-06 18:38 -23.11109 -43.88460 9548 ft 275 kts 65°
2026-05-06 18:38 -23.10301 -43.86568 9404 ft 275 kts 65°
2026-05-06 18:38 -23.09494 -43.84681 9260 ft 275 kts 65°
2026-05-06 18:38 -23.08687 -43.82795 9116 ft 277 kts 65°
2026-05-06 18:39 -23.07871 -43.80888 8958 ft 279 kts 65°
2026-05-06 18:39 -23.07052 -43.78975 8802 ft 279 kts 65°
2026-05-06 18:39 -23.06231 -43.77061 8653 ft 279 kts 65°
2026-05-06 18:40 -23.04593 -43.73241 8349 ft 279 kts 65°
2026-05-06 18:40 -23.03782 -43.71355 8200 ft 279 kts 65°
2026-05-06 18:40 -23.02960 -43.69445 8115 ft 276 kts 64°
2026-05-06 18:40 -23.02146 -43.67578 8100 ft 270 kts 64°
2026-05-06 18:41 -23.01338 -43.65732 7601 ft 277 kts 64°
2026-05-06 18:41 -23.00512 -43.63848 7284 ft 277 kts 64°
2026-05-06 18:41 -22.99692 -43.61971 7074 ft 273 kts 65°
2026-05-06 18:41 -22.98880 -43.60113 6800 ft 271 kts 64°
2026-05-06 18:42 -22.98077 -43.58294 6621 ft 265 kts 64°
2026-05-06 18:42 -22.97297 -43.56525 6455 ft 262 kts 64°
2026-05-06 18:42 -22.96515 -43.54752 6317 ft 259 kts 64°
2026-05-06 18:42 -22.95740 -43.52988 6158 ft 259 kts 64°
2026-05-06 18:43 -22.94961 -43.51212 6004 ft 262 kts 64°
2026-05-06 18:43 -22.94176 -43.49398 5728 ft 268 kts 65°
2026-05-06 18:43 -22.93399 -43.47559 5456 ft 267 kts 65°
2026-05-06 18:43 -22.92627 -43.45726 5183 ft 266 kts 65°
2026-05-06 18:44 -22.91856 -43.43904 4914 ft 265 kts 65°
2026-05-06 18:44 -22.91094 -43.42106 4730 ft 259 kts 65°
2026-05-06 18:44 -22.90353 -43.40356 4591 ft 251 kts 65°
2026-05-06 18:44 -22.89635 -43.38665 4458 ft 243 kts 65°
2026-05-06 18:45 -22.88949 -43.37042 4359 ft 229 kts 65°
2026-05-06 18:45 -22.88392 -43.35500 4230 ft 213 kts 81°
2026-05-06 18:45 -22.88479 -43.33970 4155 ft 195 kts 99°
2026-05-06 18:45 -22.88689 -43.32571 4053 ft 184 kts 97°
2026-05-06 18:46 -22.88875 -43.31238 3979 ft 175 kts 97°
2026-05-06 18:46 -22.89055 -43.29963 3874 ft 172 kts 97°
2026-05-06 18:46 -22.89238 -43.28675 3807 ft 171 kts 97°
2026-05-06 18:46 -22.89419 -43.27419 3730 ft 171 kts 97°
2026-05-06 18:47 -22.89599 -43.26146 3653 ft 170 kts 97°
2026-05-06 18:47 -22.89783 -43.24837 3322 ft 182 kts 97°
2026-05-06 18:47 -22.89971 -43.23531 3044 ft 174 kts 97°
2026-05-06 18:47 -22.90154 -43.22240 2583 ft 173 kts 97°
2026-05-06 18:48 -22.90337 -43.20952 2151 ft 171 kts 99°
2026-05-06 18:48 -22.90512 -43.19730 1983 ft 157 kts 100°
2026-05-06 18:48 -22.90692 -43.18597 1787 ft 148 kts 102°
2026-05-06 18:48 -22.90889 -43.17546 1785 ft 145 kts 103°
2026-05-06 18:49 -22.91081 -43.16445 1831 ft 149 kts 100°
2026-05-06 18:49 -22.91158 -43.15330 1827 ft 148 kts 82°
2026-05-06 18:49 -22.90677 -43.14345 1751 ft 153 kts 49°
2026-05-06 18:49 -22.89723 -43.13796 1471 ft 161 kts
2026-05-06 18:50 -22.88670 -43.14137 1095 ft 164 kts 313°
2026-05-06 18:50 -22.88294 -43.15195 848 ft 150 kts 258°
2026-05-06 18:50 -22.88795 -43.16106 557 ft 139 kts 214°
2026-05-06 18:50 -22.89698 -43.16392 236 ft 137 kts 174°
2026-05-06 18:51 -22.90635 -43.16305 33 ft 131 kts 176°
2026-05-06 18:51 -22.91307 -43.16264 26 ft 57 kts 177°
2026-05-06 18:51 -22.91491 -43.16255 27 ft 9 kts 187°
2026-05-06 18:51 -22.91521 -43.16306 26 ft 8 kts 263°
2026-05-06 18:52 -22.91527 -43.16356 25 ft 5 kts 267°
2026-05-06 18:52 -22.91516 -43.16384 27 ft 5 kts 304°
2026-05-06 18:52 -22.91476 -43.16431 28 ft 12 kts 318°
2026-05-06 18:52 -22.91413 -43.16492 29 ft 11 kts 319°
2026-05-06 18:53 -22.91348 -43.16505 29 ft 9 kts 357°
2026-05-06 18:53 -22.91289 -43.16509 29 ft 8 kts 356°
2026-05-06 18:53 -22.91238 -43.16512 29 ft 7 kts 357°
2026-05-06 18:53 -22.91191 -43.16514 29 ft 7 kts 358°
2026-05-06 18:54 -22.91148 -43.16516 29 ft 8 kts 358°
2026-05-06 18:54 -22.91103 -43.16532 29 ft 4 kts 305°
2026-05-06 18:54 -22.91099 -43.16545 29 ft 1 kts 285°
2026-05-06 18:54 -22.91098 -43.16570 29 ft 4 kts 268°
2026-05-06 18:55 -22.91098 -43.16583 29 ft 2 kts 268°
2026-05-06 18:55 -22.91098 -43.16590 29 ft 0 kts 268°